Weather History for Andalusia, AL

Change the Weather History Date:

Monday, February 18, 2013

  Actual Average (KCEW) Record (KCEW)
Temperature  
Mean Temperature 48 °F -  
Max Temperature 64 °F 66 °F 81 °F (1982)
Min Temperature 33 °F 44 °F 25 °F (2007)
Degree Days  
Heating Degree Days 16    
Moisture  
Dew Point 33 °F    
Average Humidity 55    
Maximum Humidity 82    
Minimum Humidity 27    
Precipitation  
Precipitation 0.00 in - - ()
Sea Level Pressure  
Sea Level Pressure 30.24 in    
Wind  
Wind Speed 4 mph (South)    
Max Wind Speed 10 mph    
Max Gust Speed 18 mph    
Visibility 10 miles    
Events      
Averages and records for this station are not official NWS values.
T = Trace of Precipitation, MM = Missing Value Source: NWS Daily Summary

Daily Weather History Graph

Daily Weather History Graph

Search for Another Location

Airport:

Trip Planner

Search our weather history database for the weather conditions in past years. The results will help you decide how hot, cold, wet, or windy it might be!

Date:

Astronomy

Feb. 18, 2013 Rise Set
Actual Time 6:23 AM CST 5:35 PM CST
Civil Twilight 5:59 AM CST 6:00 PM CST
Nautical Twilight 5:30 AM CST 6:28 PM CST
Astronomical Twilight 5:02 AM CST 6:56 PM CST
Moon 11:31 AM CST (2/18) 12:52 AM CST (2/18)
Length of Visible Light 12h 01m
Length of Day
11h 11m
First Quarter, 58% of the Moon is Illuminated
Feb 18
First Quarter
Feb 25
Full
Mar 4
Last Quarter
Mar 11
New
Mar 19
First Quarter

Hourly Weather History & Observations

Time (CST) Temp. Windchill Dew Point Humidity Pressure Visibility Wind Dir Wind Speed Gust Speed Precip Events Conditions
12:56 AM 34.0 °F - 28.9 °F 82% 30.31 in 10.0 mi Calm Calm - N/A   Clear
1:56 AM 34.0 °F - 28.9 °F 82% 30.30 in 10.0 mi Calm Calm - N/A   Clear
2:56 AM 33.1 °F - 28.0 °F 82% 30.29 in 10.0 mi Calm Calm - N/A   Clear
3:56 AM 33.1 °F 30.0 °F 28.0 °F 82% 30.29 in 10.0 mi SSE 3.5 mph - N/A   Clear
4:56 AM 34.0 °F 31.0 °F 28.0 °F 79% 30.30 in 10.0 mi SSE 3.5 mph - N/A   Clear
5:56 AM 34.0 °F - 28.9 °F 82% 30.31 in 10.0 mi Calm Calm - N/A   Clear
6:56 AM 35.1 °F 31.0 °F 30.0 °F 82% 30.32 in 10.0 mi SSE 4.6 mph - N/A   Clear
7:56 AM 44.1 °F 40.1 °F 30.9 °F 60% 30.33 in 10.0 mi SE 6.9 mph - N/A   Clear
8:56 AM 53.1 °F - 34.0 °F 48% 30.34 in 10.0 mi Variable 4.6 mph - N/A   Clear
9:56 AM 57.9 °F - 35.1 °F 42% 30.34 in 10.0 mi SSW 8.1 mph - N/A   Clear
10:56 AM 61.0 °F - 34.0 °F 36% 30.32 in 10.0 mi SE 9.2 mph 16.1 mph N/A   Clear
11:56 AM 62.1 °F - 28.0 °F 28% 30.29 in 10.0 mi South 10.4 mph 18.4 mph N/A   Clear
12:56 PM 63.0 °F - 28.0 °F 27% 30.26 in 10.0 mi SSW 10.4 mph 16.1 mph N/A   Clear
1:56 PM 64.9 °F - 30.9 °F 28% 30.23 in 10.0 mi South 9.2 mph - N/A   Clear
2:56 PM 64.9 °F - 33.1 °F 31% 30.21 in 10.0 mi SW 9.2 mph 18.4 mph N/A   Clear
3:56 PM 62.1 °F - 36.0 °F 38% 30.19 in 10.0 mi SSW 9.2 mph - N/A   Mostly Cloudy
4:56 PM 60.1 °F - 36.0 °F 41% 30.19 in 10.0 mi SSW 9.2 mph - N/A   Mostly Cloudy
5:56 PM 57.9 °F - 36.0 °F 44% 30.18 in 10.0 mi South 9.2 mph - N/A   Overcast
6:56 PM 55.9 °F - 36.0 °F 47% 30.17 in 10.0 mi SSW 5.8 mph - N/A   Scattered Clouds
7:56 PM 55.0 °F - 37.0 °F 51% 30.18 in 10.0 mi SSW 6.9 mph - N/A   Clear
8:56 PM 54.0 °F - 37.0 °F 53% 30.16 in 10.0 mi Variable 5.8 mph - N/A   Mostly Cloudy
9:56 PM 53.1 °F - 37.0 °F 55% 30.15 in 10.0 mi South 8.1 mph - N/A   Mostly Cloudy
10:56 PM 52.0 °F - 37.0 °F 57% 30.11 in 10.0 mi SSE 6.9 mph - N/A   Overcast
11:56 PM 52.0 °F - 37.9 °F 59% 30.08 in 10.0 mi SSE 9.2 mph - N/A   Clear